This is the latest recevied weather packets stored in our database for station/object OH2EGI-2. If no packets are shown the sender has not sent any weather packets the latest 10 day(s).
| Time | Temp. | Humidity | Pressure | Rain* | Wind** | Luminosity | Snow |
|---|---|---|---|---|---|---|---|
| 1778081491 | 13.89° C | 36% | 1005.6 hPa | 0 mm | - | - | - |
| 1778081191 | 13.33° C | 37% | 1005.6 hPa | 0 mm | - | - | - |
| 1778080891 | 12.78° C | 37% | 1005.7 hPa | 0 mm | - | - | - |
| 1778080591 | 12.78° C | 37% | 1005.7 hPa | 0 mm | - | - | - |
| 1778080291 | 13.89° C | 36% | 1005.7 hPa | 0 mm | - | - | - |
| 1778079991 | 13.89° C | 36% | 1005.6 hPa | 0 mm | - | - | - |
| 1778079691 | 14.44° C | 35% | 1005.7 hPa | 0 mm | - | - | - |
| 1778079391 | 15° C | 34% | 1005.6 hPa | 0 mm | - | - | - |
| 1778079091 | 15° C | 34% | 1005.7 hPa | 0 mm | - | - | - |
| 1778078791 | 16.67° C | 33% | 1005.8 hPa | 0 mm | - | - | - |
| 1778078491 | 16.67° C | 34% | 1005.6 hPa | 0 mm | - | - | - |
| 1778078191 | 16.11° C | 36% | 1005.8 hPa | 0 mm | - | - | - |
| 1778077891 | 13.89° C | 38% | 1005.7 hPa | 0 mm | - | - | - |
| 1778077591 | 13.89° C | 37% | 1005.7 hPa | 0 mm | - | - | - |
| 1778077291 | 13.89° C | 37% | 1005.7 hPa | 0 mm | - | - | - |
| 1778076991 | 13.89° C | 38% | 1005.6 hPa | 0 mm | - | - | - |
| 1778076691 | 13.89° C | 37% | 1005.6 hPa | 0 mm | - | - | - |
| 1778076391 | 13.89° C | 37% | 1005.6 hPa | 0 mm | - | - | - |
| 1778076091 | 13.33° C | 39% | 1005.6 hPa | 0 mm | - | - | - |
| 1778075791 | 12.78° C | 41% | 1005.6 hPa | 0 mm | - | - | - |
| 1778075491 | 11.67° C | 42% | 1005.6 hPa | 0 mm | - | - | - |
| 1778075191 | 11.11° C | 43% | 1005.6 hPa | 0 mm | - | - | - |
| 1778074891 | 11.11° C | 42% | 1005.7 hPa | 0 mm | - | - | - |
| 1778074591 | 11.11° C | 42% | 1005.7 hPa | 0 mm | - | - | - |
| 1778074291 | 11.11° C | 42% | 1005.7 hPa | 0 mm | - | - | - |
* Rain latest hour (hover to see other rain measurements)
** Current wind speed in m/s (hover to see current wind gust speed)